Simultaneous Nadir Overpasses (SNOs) Predictions

Prediction of SNOs between AQUA and NOAA-19 Satellite Orbit:

Table of predicted SNOs for the next 14.0 days since TLE Epoch: 9/24/2022
Index Date (AQUA) Time (AQUA) Lat,Lon (AQUA) SZA (AQUA ) Date (NOAA-19) Time (NOAA-19) Lat,Lon (NOAA-19) SZA (NOAA-19 ) Distance(km) Time Diff (sec)
1 09/25/2022 19:21:51 77.26,-124.92 78.56 09/25/2022 19:21:34 77.24,-124.99 78.56 2.51 17
2 09/25/2022 20:11:18 -77.33, 42.44 101.34 09/25/2022 20:12:31 -77.34, 42.72 101.36 6.97 73
3 09/28/2022 00:54:56 -77.23, -28.07 100.62 09/28/2022 00:54:24 -77.24, -28.13 100.60 2.14 32
4 09/28/2022 01:44:24 77.30, 139.29 79.48 09/28/2022 01:45:24 77.28, 139.29 79.45 2.66 60
5 09/30/2022 06:28:02 77.22, 68.72 80.23 09/30/2022 06:27:16 77.23, 68.70 80.26 2.04 46
6 09/30/2022 07:17:29 -77.29,-123.91 99.68 09/30/2022 07:18:13 -77.29,-123.78 99.69 3.15 44
7 10/02/2022 12:01:07 -77.22, 165.46 98.92 10/02/2022 12:00:05 -77.22, 165.52 98.90 1.56 62
8 10/02/2022 12:50:34 77.25, -27.02 81.13 10/02/2022 12:51:06 77.26, -27.07 81.14 1.83 32
9 10/04/2022 17:34:12 77.19, -97.72 81.91 10/04/2022 17:32:59 77.16, -97.90 81.91 5.53 73
10 10/04/2022 18:23:39 -77.26, 69.66 98.00 10/04/2022 18:23:54 -77.26, 69.83 98.01 3.98 15
11 10/06/2022 23:56:43 77.21, 166.60 82.79 10/06/2022 23:56:48 77.22, 166.47 82.81 3.24 5



Historial Predications of SNOs between AQUA and NOAA-19
